Home   Weather   Narragansett   Past weeks

Flag for USA Past Weather in Narragansett, Rhode Island, USA — Yesterday and Last 2 Weeks

Now
42 °F

Fog.


Feels Like: 40 °F
Forecast: 39 / 46 °F
Wind: 3 mph from North

Location: Newport State Airport

Current Time: Jan 21, 2017 at 8:48:18 pm

Latest Report: Jan 21, 2017 at 7:53 pm


Visibility: 0 mi

Pressure: 29.78 "Hg

Humidity: 100%

Dew Point: 42 °F

Location of NarragansettLocation

Past Weather in Narragansett — Graph

°F

Narragansett Temperature Yesterday

Maximum temperature yesterday: 43 °F (at 11:53 am)
Minimum temperature yesterday: 29 °F (at 6:53 am)
Average temperature yesterday: 38 °F

High & Low Weather Summary for the Past Weeks

 TemperatureHumidityPressure
High55 °F (Jan 13, 2:53 am)100% (Jan 10, 7:53 pm)30.70 "Hg (Jan 10, 7:53 pm)
Low12 °F (Jan 9, 4:53 am)33% (Jan 13, 11:53 pm)29.75 "Hg (Jan 21, 2:53 pm)
Average35 °F79%30.21 "Hg
* Reported Jan 6 6:53 pm — Jan 21 6:53 pm, Narragansett, Weather by CustomWeather, © 2017

Note: Actual official high and low records may vary slightly from our data, if they occured in-between our weather recording intervals... More about our weather records

Advertising

Narragansett Weather History for the Previous 24 Hours

Scroll right to see more
 ConditionsComfort  
Time TempWeatherWind HumidityBarometerVisibility
6:53 pm
Sat, Jan 21
41 °FFog.5 mph100%29.78 "Hg0 mi
5:53 pm40 °FFog.6 mph100%29.77 "Hg1 mi
5:36 pm40 °FFog.7 mph100%29.77 "Hg1 mi
4:53 pm42 °FFog.6 mph96%29.78 "Hg4 mi
3:53 pm44 °FFog.8 mph93%29.76 "Hg5 mi
2:53 pm48 °FSunny.5 mph80%29.75 "Hg10 mi
1:53 pm49 °FSunny.7 mph77%29.76 "Hg9 mi
12:53 pm45 °FMore clouds than sun.5 mph90%29.80 "Hg9 mi
11:53 am45 °FFog.3 mph90%29.81 "Hg6 mi
10:53 am44 °FFog.5 mph93%29.84 "Hg6 mi
9:53 am44 °FLow clouds.5 mph89%29.85 "Hg7 mi
8:53 am43 °FLow clouds.5 mph93%29.85 "Hg7 mi
7:53 am43 °FFog.3 mph97%29.87 "Hg4 mi
6:53 am43 °FFog.5 mph97%29.86 "Hg6 mi
5:53 am42 °FFog.No wind100%29.86 "Hg3 mi
4:53 am43 °FLow clouds.No wind100%29.86 "Hg7 mi
3:53 am42 °FLow clouds.3 mph96%29.88 "Hg7 mi
2:53 am42 °FOvercast.7 mph89%29.90 "Hg10 mi
2:25 am42 °FOvercast.6 mph85%29.91 "Hg10 mi
1:53 am41 °FOvercast.5 mph93%29.90 "Hg10 mi
12:53 am40 °FMostly cloudy.6 mph93%29.90 "Hg10 mi
11:53 pm
Fri, Jan 20
40 °FOvercast.6 mph89%29.92 "Hg10 mi
11:03 pm40 °FMostly cloudy.5 mph83%29.93 "Hg10 mi
9:53 pm40 °FMostly cloudy.No wind83%29.94 "Hg10 mi
9:35 pm40 °FMostly cloudy.3 mph83%29.94 "Hg10 mi
8:53 pm40 °FOvercast.5 mph83%29.94 "Hg10 mi
Weather by CustomWeather, © 2017

See weather overviewHow to use our weather pages